This is the latest recevied weather packets stored in our database for station/object K9RJT. If no packets are shown the sender has not sent any weather packets the latest 10 day(s).
| Time | Temp. | Humidity | Pressure | Rain* | Wind** | Luminosity | Snow |
|---|---|---|---|---|---|---|---|
| 1777942861 | 25.56° C | 31% | 1004.2 hPa | 0 mm | - | 152 W/m² | - |
| 1777942558 | 25.56° C | 31% | 1004.2 hPa | 0 mm | - | 153 W/m² | - |
| 1777942255 | 25° C | 32% | 1004.4 hPa | 0 mm | - | 153 W/m² | - |
| 1777941952 | 25° C | 32% | 1004.2 hPa | 0 mm | - | 62 W/m² | - |
| 1777941649 | 25° C | 31% | 1004.2 hPa | 0 mm | - | 179 W/m² | - |
| 1777941346 | 25° C | 33% | 1004.2 hPa | 0 mm | - | 74 W/m² | - |
| 1777941043 | 25° C | 33% | 1004.3 hPa | 0 mm | - | 73 W/m² | - |
| 1777940743 | 25° C | 32% | 1004.2 hPa | 0 mm | - | 68 W/m² | - |
| 1777940443 | 25° C | 32% | 1004.1 hPa | 0 mm | - | 80 W/m² | - |
| 1777940140 | 25.56° C | 32% | 1004.2 hPa | 0 mm | - | 73 W/m² | - |
| 1777939837 | 26.67° C | 31% | 1004.2 hPa | 0 mm | - | 99 W/m² | - |
| 1777939534 | 26.67° C | 28% | 1004.3 hPa | 0 mm | - | 286 W/m² | - |
| 1777939232 | 26.67° C | 29% | 1004.3 hPa | 0 mm | - | 304 W/m² | - |
| 1777938928 | 26.67° C | 29% | 1004.4 hPa | 0 mm | - | 315 W/m² | - |
| 1777938625 | 26.67° C | 29% | 1004.3 hPa | 0 mm | - | 315 W/m² | - |
| 1777938322 | 27.78° C | 29% | 1004.3 hPa | 0 mm | - | 328 W/m² | - |
| 1777938019 | 27.78° C | 28% | 1004.4 hPa | 0 mm | - | 362 W/m² | - |
| 1777937714 | 27.22° C | 27% | 1004.2 hPa | 0 mm | - | 374 W/m² | - |
| 1777937412 | 26.67° C | 27% | 1004.3 hPa | 0 mm | - | 368 W/m² | - |
| 1777937108 | 27.22° C | 27% | 1004.4 hPa | 0 mm | - | 366 W/m² | - |
| 1777936806 | 27.22° C | 28% | 1004.7 hPa | 0 mm | - | 392 W/m² | - |
| 1777936502 | 26.67° C | 27% | 1004.4 hPa | 0 mm | - | 399 W/m² | - |
| 1777936198 | 26.67° C | 27% | 1004.4 hPa | 0 mm | - | 403 W/m² | - |
| 1777935895 | 27.22° C | 26% | 1004.3 hPa | 0 mm | - | 414 W/m² | - |
| 1777935594 | 27.22° C | 27% | 1004.9 hPa | 0 mm | - | 426 W/m² | - |
* Rain latest hour (hover to see other rain measurements)
** Current wind speed in m/s (hover to see current wind gust speed)